Skip Page Navigation
NASA JPL Caltech
NASA Logo - Jet Propulsion Laboratory + View the NASA Portal
+ Center for Near-Earth Object Studies
JPL Home Earth Solar System Stars & Galaxies Technology
JPL Solar System Dynamics
BODIES ORBITS EPHEMERIDES TOOLS PHYSICAL DATA DISCOVERY FAQ SITE MAP
IMPORTANT: The SSD Announcement email list is now available. Major changes are coming in the near future, including possible hostname and/or URL changes. To be notified of such changes, subscribe to this email list.

Please visit this page for more details.


JPL Small-Body Database Browser
Search: [ help ]  
(2004 FU162)
Classification: Aten [NEO]          SPK-ID: 3249978
Ephemeris | Orbit Diagram | Orbital Elements | Mission Design | Physical Parameters | Close-Approach Data ]

[ hide orbit diagram ]

For accurate long-term ephemerides, please instead use our Horizons system.This orbit viewer was implemented using two-body methods, and hence should not be used for determining accurate long-term trajectories (over several years or decades) or planetary encounter circumstances.


[ revert to old Java-based viewer ]

Orbital Elements at Epoch 2453100.5 (2004-Apr-05.0) TDB
Reference: JPL 10 (heliocentric ecliptic J2000)
 Element Value Uncertainty (1-sigma)   Units 
e .3921712395216529 0.039142  
a .8268612736523362 0.11089 au
q .5025900630516469 0.041873 au
i 4.164680034919877 2.9908 deg
node 191.2486004165659 0.091892 deg
peri 139.7843002537736 22.242 deg
M 262.6667234495233 38.186 deg
tp 2453174.751673713520
(2004-Jun-18.25167371)
14.287 TDB
period 274.6296383334512
0.75
55.246
0.1513
d
yr
n 1.310856330673579 0.2637 deg/d
Q 1.151132484253026 0.15438 au
  Orbit Determination Parameters
   # obs. used (total)      4  
   first obs. used      2004-03-31  
   last obs. used      2004-03-31  
   planetary ephem.      DE431  
   SB-pert. ephem.      SB431-N16  
   condition code      9  
   norm. resid. RMS      .14946  
   source      ORB  
   producer      Otto Matic  
   solution date      2017-Apr-06 09:12:58  

Additional Information
 Earth MOID = 7.22621E-5 au 
 Jupiter MOID = 4.17971 au 
 T_jup = 7.024 
[ show covariance matrix ]

Ephemeris | Orbit Diagram | Orbital Elements | Mission Design | Physical Parameters | Close-Approach Data ]

Physical Parameter Table
Parameter Symbol Value Units Sigma Reference Notes
absolute magnitude H 28.7   n/a MPO66355  

[ show close-approach data ]
Ephemeris | Orbit Diagram | Orbital Elements | Mission Design | Physical Parameters | Close-Approach Data ]
ABOUT SSD CREDITS/AWARDS PRIVACY/COPYRIGHT GLOSSARY LINKS
FirstGov 2019-Oct-20 20:29 UT
(server date/time)  
NASA Home Page
Site Manager:   Ryan S. Park
Webmaster  Alan B. Chamberlin